Regional Weather Roundup
Issued by NWS Albany, NY

Home | Current Version | Previous Version | Text Only | Print | Product List | Glossary On
Versions: 1 2 3 4 5 6 7 8 9 10 11 12 13 14 15 16 17 18 19 20 21 22 23 24 25 26 27 28 29 30 31 32 33 34 35 36 37 38 39 40 41 42 43 44 45 46 47 48
000
ASUS41 KALY 230010
RWRALY

NEW YORK STATE HOURLY WEATHER ROUNDUP
NATIONAL WEATHER SERVICE ALBANY NY
700 PM EST MON DEC 22 2014

NOTE: "FAIR" INDICATES FEW OR NO CLOUDS BELOW 12,000 FEET WITH NO
SIGNIFICANT WEATHER AND/OR NO OBSTRUCTIONS TO VISIBILITY.

NYZ032-033-038>043-046>054-057>066-NYZ062>081-230100-
EAST


CITY           SKY/WX    TMP DP  RH WIND       PRES   REMARKS
ALBANY         CLOUDY    34  27  75 NW3       30.27S
GLENS FALLS    CLOUDY    33  26  75 CALM      30.28S
POUGHKEEPSIE   CLOUDY    38  32  79 N3        30.25R
NEWBURGH       CLOUDY    37  36  93 CALM      30.25  FOG
MONTGOMERY     CLOUDY    37  34  89 N8        30.23S WCI  31
WHITE PLAINS   CLOUDY    42  39  89 E8G17     30.22R
ISLIP          DRIZZLE   45  40  82 NE9       30.22R
NEW YORK CITY  CLOUDY    43  39  86 NE7       30.22S
CENTRAL PARK   CLOUDY    43  39  86 NE5       30.24S
$$

NYZ005>009-017-018-044>046-055-056-230100-
CENTRAL


CITY           SKY/WX    TMP DP  RH WIND       PRES   REMARKS
FULTON         MOCLDY    35  28  75 MISG      30.15S
SYRACUSE       CLOUDY    36  29  75 SE10      30.16F WCI  28
ROME           MOCLDY    34  30  85 SE9       30.21F WCI  27
ELMIRA         CLOUDY    35  26  69 W3        30.14R
BINGHAMTON     CLOUDY    33  30  88 SE9       30.13R WCI  25
MONTICELLO     CLOUDY    34  32  93 E10       30.19S WCI  26
$$

NYZ026>034-041>043-230100-
NORTH


CITY           SKY/WX    TMP DP  RH WIND       PRES   REMARKS
WATERTOWN      PTCLDY    30  23  75 NE5       30.18S WCI  25
FORT DRUM      NOT AVBL
MASSENA        CLOUDY    23  17  78 NE13      30.28S WCI  11
SARANAC LAKE     N/A    N/A N/A N/A MISG      30.17S
PLATTSBURGH    CLOUDY    23  18  81 N3        30.31S
$$

NYZ001>004-010>016-019>021-230100-
WEST


CITY           SKY/WX    TMP DP  RH WIND       PRES   REMARKS
NIAGARA FALLS  CLOUDY    34  27  75 E6        30.05S WCI  29
BUFFALO        CLOUDY    36  27  69 E8        30.06R WCI  30
DUNKIRK        MOCLDY    37  28  70 SE13G22   30.04S WCI  29
JAMESTOWN      MOCLDY    32  25  74 SE10      30.02S WCI  24
WELLSVILLE     CLOUDY    30  24  78 SE7       30.08R WCI  23
ROCHESTER      MOCLDY    35  26  69 S6        30.11S WCI  30
PENN YAN       PTCLDY    33  24  69 S7        30.13R WCI  27
$$

             KEY
       WCI = WIND CHILL INDEX
       VSB = VISIBILITY
       HX  = HEAT INDEX
$$


USA.gov is the U.S. government's official web portal to all federal, state and local government web resources and services.